Weather in Filimonovo

Russia / Yaroslavl Oblast     56°46′42″N   39°06′09″E
temp.,
°C
wind,
m/s
gust,
m/s
humid.,
%
clouds,
%
prec.,
mm/h
press.,
hPa
HPBL,
m
6 may, thu
thu600:00+6ssw379774 0.1 1008132
03:00+7ssw259878 0.1 1008118
06:00+7sse4109561 0.0 1006219
09:00+11s61383100 0.0 1005444
12:00+15s91666100 0.1 10041695
15:00+15s101770100 0.3 10031757
18:00+14ssw101766100 0.1 10021592
21:00+9wsw71287100 0.6 1005947
7 may, fri
fri700:00+7sw51087100 0.1 1006546
03:00+6sw4109292 0.1 1007463
06:00+5sw4992100 0.0 1009624
09:00+7wsw577476 0.0 1010939
12:00+11wsw685574 0.4 10101879
15:00+13wsw694482 0.4 10112472
18:00+11sw59585 0.0 10111150
21:00+8s347295 0.0 101356
8 may, sat
sat800:00+7s41377100 0.0 1012276
03:00+7s51470100 0.0 1012409
06:00+8s61466100 0.0 1010918
09:00+8sse91683100 0.8 10081266
12:00+8se101989100 2.7 10051463
15:00+8sse71692100 8.0 10041416
18:00+8sse61395100 1.7 1001828
21:00+8sw51293100 2.1 1001676
9 may, sun
sun900:00+6wsw91287100 0.3 10031007
03:00+4wsw71289100 0.6 10061169
06:00+3w71296100 0.3 1009916
09:00+4w61087100 0.3 10131032
12:00+5w5878100 0.1 1016972
15:00+7wnw4767100 0.1 10181299
18:00+9wnw466867 0.6 1021986
21:00+4w11825 0.8 102310
10 may, mon
mon1000:00+3wsw33855 0.0 102538
03:00+2w33835 0.0 102733
06:00+4wsw24766 0.0 102976
09:00+10sw35585 0.0 1029519
12:00+14wsw464411 0.0 10291700
15:00+14w4654100 0.0 10291587
18:00+14w35635 0.0 1029621
21:00+8wsw33805 0.0 103024